Regional Weather Roundup
Issued by NWS Kansas City/Pleasant Hill, MO

Home | Current Version | Previous Version | Text Only | Print | Product List | Glossary On
Versions: 1 2 3 4 5 6 7 8 9 10 11 12 13 14 15 16 17 18 19 20 21 22 23 24 25 26 27 28 29 30 31 32 33 34 35 36 37 38 39 40 41 42 43 44 45 46 47 48 49 50
000
ASUS43 KEAX 040604
RWREAX

WEATHER ROUNDUP FOR EASTERN KANSAS AND NORTHWEST MISSOURI
NATIONAL WEATHER SERVICE KANSAS CITY/PLEASANT HILL MO
100 AM CDT SAT JUL 04 2015

KSZ040-057-103>105-MOZ028-029-037-043-040700-
...KANSAS CITY METROPOLITAN AREA...

CITY           SKY/WX    TMP DP  RH WIND       PRES   REMARKS
K.C. INTL      PTCLDY    68  58  70 E6        30.00S
6HR MIN TEMP:  68; 6HR MAX TEMP:  78;

K.C. DOWNTOWN  PTCLDY    70  59  68 N3        29.99S
6HR MIN TEMP:  70; 6HR MAX TEMP:  80; 6HR PCP: TRACE;

LEES SUMMIT    CLEAR     67  60  78 CALM      30.00S
6HR MIN TEMP:  67; 6HR MAX TEMP:  78;

OLATHE - IXD   CLEAR     67  59  75 NE3       30.01R
6HR MIN TEMP:  65; 6HR MAX TEMP:  78;

OLATHE - OJC   CLEAR     67  59  75 NE5       29.99S
6HR MIN TEMP:  65; 6HR MAX TEMP:  78;

LAWRENCE       PTCLDY    62  60  93 NW5       30.00S

$$

MOZ001>008-011>017-020>025-030>033-038>040-044>046-053-054-040700-
...NORTHERN AND CENTRAL MISSOURI...

CITY           SKY/WX    TMP DP  RH WIND       PRES   REMARKS
ST. JOSEPH     CLEAR     63  60  90 CALM      30.00S
6HR MIN TEMP:  63; 6HR MAX TEMP:  79;

MOSBY          CLEAR     63  61  94 CALM      29.99S
HARRISONVILLE  CLEAR     68  61  77 CALM      30.01S
WHITEMAN AFB   CLEAR     65  62  91 CALM      29.97F
6HR MIN TEMP:  64; 6HR MAX TEMP:  78;

CLINTON        CLEAR     64  64 100 CALM      29.98F
SEDALIA        CLEAR     65  61  87 N3        29.99F
6HR MIN TEMP:  65; 6HR MAX TEMP:  78;

WARSAW         FAIR      63  63 100 CALM      29.98F
CHILLICOTHE      N/A     63  61  93 CALM      30.00S
6HR MIN TEMP:  63; 6HR MAX TEMP:  79;

KIRKSVILLE     CLEAR     58  57  97 CALM      30.00S FOG
6HR MIN TEMP:  58; 6HR MAX TEMP:  76; 6HR PCP: TRACE;


$$

MOZ041-047>049-056>058-063>065-088>090-097-040700-
...EASTERN AND SOUTHERN MISSOURI...

CITY           SKY/WX    TMP DP  RH WIND       PRES   REMARKS
ST. LOUIS INTL CLEAR     73  65  75 CALM      29.96S HAZE
6HR MIN TEMP:  72; 6HR MAX TEMP:  80;

SPIRIT OF STL  CLEAR     66  66 100 CALM      29.95S FOG
COLUMBIA       CLEAR     67  61  81 NE7       29.98S
JEFFERSON CITY CLEAR     66  62  87 W3        29.96F
MEXICO         CLEAR    N/A N/A N/A CALM      29.99R
ROLLA          CLEAR     65  62  90 NE5       29.96F
LEBANON        CLEAR     66  63  88 CALM      29.98S
OSAGE BEACH    CLEAR     64  61  88 NE3       29.97S
SPRINGFIELD    CLEAR     69  65  86 NE5       29.96F
BRANSON          N/A     68  68 100 CALM      29.97S
JOPLIN         CLEAR     69  68  96 CALM      29.97S
WEST PLAINS    CLEAR     68  65  90 CALM      29.96S
MALDEN         PTCLDY    72  70  94 CALM      29.92S

$$

IAZ060-094-KSZ022-034>040-054-083-096-NEZ052-066-093-040700-
...KANSAS...SOUTHEAST NEBRASKA AND IOWA...

CITY           SKY/WX    TMP DP  RH WIND       PRES   REMARKS
TOPEKA         MOCLDY    64  62  93 CALM      30.00S FOG
6HR MIN TEMP:  64; 6HR MAX TEMP:  79;

MANHATTAN      PTCLDY    63  60  90 CALM      30.01R
EMPORIA        PTCLDY    65  62  90 CALM      30.00S
CHANUTE        MOCLDY    71  66  84 NE6       29.98F
WICHITA        CLEAR     72  63  73 NE5       29.99F
OMAHA          PTCLDY    63  56  78 E5        29.98F
LINCOLN        CLEAR     67  59  75 CALM      30.00F HAZE
FALLS CITY     CLEAR     64  59  83 CALM      29.99S
LAMONI         CLEAR     66  55  67 SE3       30.00R
DES MOINES     CLEAR     67  57  70 CALM      29.98S

$$



USA.gov is the U.S. government's official web portal to all federal, state and local government web resources and services.